Location: Vista Encantada
(35.1109°N, 106.5681°W)
Time: 21:48:50
(UTC+00:00)

Nauka - Pass Details

Date: 05 October 2021
Orbit: 417 x 423 km, 51.6° (Epoch: 26 October)

Event Time Altitude Azimuth Distance (km) Brightness Sun altitude
Rises 01:18:54 0° 324° (NW) 2,363 ? -7.7°
Reaches altitude 10° 01:21:24 10° 342° (NNW) 1,498 ? -8.2°
Maximum altitude 01:23:57 20° 31° (NNE) 1,044 ? -8.7°
Enters shadow 01:26:04 12° 75° (ENE) 1,374 ? -9.1°
